UTOFI Weather Reports


time (UTC)temp
F
wind
direction
speed
knots
gust
knots
rain 1hr
in
rain 24hr
in
rain mn
in
humidity
%
barometer
mb
20260506170726 46 328 3.5 4.3 0.00 0.00 0.00 58 1014.9
20260506164725 47 314 3.5 5.2 0.00 0.00 0.00 54 1015.0
20260506162726 47 286 2.6 4.3 0.00 0.00 0.00 62 1015.0
20260506160725 47 277 3.5 5.2 0.00 0.00 0.00 59 1015.0
20260506154726 47 282 4.3 6.1 0.00 0.00 0.00 65 1015.1
20260506152726 46 267 4.3 5.2 0.00 0.00 0.00 63 1015.1
20260506150725 46 257 3.5 4.3 0.00 0.00 0.00 62 1015.2
20260506144725 46 264 4.3 5.2 0.00 0.00 0.00 64 1015.3
20260506142725 45 258 3.5 5.2 0.00 0.00 0.00 66 1015.2
20260506140725 46 258 5.2 6.1 0.00 0.00 0.00 66 1015.2
20260506134725 46 250 5.2 7.0 0.00 0.00 0.00 69 1015.4
20260506130725 46 254 5.2 7.0 0.00 0.00 0.00 72 1015.4
20260506124725 46 260 5.2 7.0 0.00 0.00 0.00 75 1015.5
20260506122724 46 257 5.2 7.0 0.00 0.00 0.00 72 1015.4
20260506120725 46 244 5.2 7.8 0.00 0.00 0.00 73 1015.5
20260506114725 48 232 6.1 7.8 0.00 0.00 0.00 69 1015.6
20260506112725 47 242 5.2 7.8 0.00 0.00 0.00 61 1015.4
20260506110725 46 248 4.3 6.1 0.00 0.00 0.00 65 1015.4
20260506104726 47 258 5.2 7.0 0.00 0.00 0.00 57 1015.4
20260506102726 47 263 4.3 6.1 0.00 0.00 0.00 57 1015.5
20260506100727 47 338 5.2 7.0 0.00 0.00 0.00 50 1015.3
20260506094727 47 337 5.2 7.8 0.00 0.00 0.00 56 1015.1
20260506092727 47 337 6.1 7.8 0.00 0.00 0.00 58 1014.8
20260506090726 47 340 6.1 8.7 0.00 0.00 0.00 66 1014.6
20260506084727 46 340 7.0 8.7 0.00 0.00 0.00 66 1014.5
20260506082727 47 303 7.0 8.7 0.00 0.00 0.00 66 1014.4
20260506080726 47 276 6.1 7.8 0.00 0.00 0.00 65 1014.2
20260506072728 45 270 7.0 7.8 0.00 0.00 0.00 69 1014.1
20260506070726 46 301 6.1 8.7 0.00 0.00 0.00 66 1013.9
20260506060726 45 304 7.0 8.7 0.00 0.00 0.00 68 1013.4
20260506050726 44 305 7.0 8.7 0.00 0.00 0.00 73 1012.9
20260506044726 43 293 7.0 9.6 0.00 0.00 0.00 74 1012.8
20260506042726 42 280 7.8 9.6 0.00 0.00 0.00 81 1012.6
20260506040726 42 279 8.7 10.4 0.00 0.00 0.00 83 1012.4
20260506034727 41 281 9.6 12.2 0.00 0.00 0.00 83 1012.1
20260506032725 41 277 9.6 11.3 0.00 0.00 0.00 86 1011.9
20260506030726 41 279 9.6 11.3 0.00 0.00 0.00 83 1011.7
20260506024726 41 269 9.6 11.3 0.00 0.00 0.00 85 1011.6
20260506022725 40 277 8.7 10.4 0.00 0.00 0.00 87 1011.5
20260506020725 40 280 7.0 8.7 0.00 0.00 0.00 89 1011.4
20260506014725 41 268 8.7 9.6 0.00 0.00 0.00 85 1011.2
20260506012725 41 269 9.6 10.4 0.00 0.00 0.00 86 1011.0
20260506010726 41 264 9.6 11.3 0.00 0.00 0.00 83 1010.7
20260506004725 41 269 9.6 10.4 0.00 0.00 0.00 85 1010.5
20260506002725 41 269 7.8 8.7 0.00 0.00 0.00 87 1010.4
20260506000725 41 279 7.8 9.6 0.00 0.00 0.00 85 1010.3
20260505234725 40 290 8.7 11.3 0.00 0.00 0.00 82 1010.2
20260505232725 40 286 7.8 8.7 0.00 0.00 0.00 85 1010.2
20260505230725 40 282 7.0 9.6 0.00 0.00 0.00 86 1010.0
20260505224725 41 275 7.8 9.6 0.00 0.00 0.00 88 1010.0
20260505222725 41 265 9.6 10.4 0.00 0.00 0.00 90 1010.0
20260505220725 41 265 7.8 9.6 0.00 0.00 0.00 91 1009.9
20260505214725 41 273 7.8 9.6 0.00 0.00 0.00 90 1009.9
20260505212725 42 276 7.8 9.6 0.00 0.00 0.00 87 1009.8
20260505210724 41 277 7.8 10.4 0.00 0.00 0.00 88 1009.7
20260505204724 41 253 7.8 9.6 0.00 0.00 0.00 91 1009.5
20260505202725 41 245 7.8 9.6 0.00 0.00 0.00 91 1009.3
20260505200724 41 242 10.4 12.2 0.00 0.00 0.00 91 1009.2
20260505194723 41 253 10.4 12.2 0.00 0.00 0.00 91 1009.2
20260505192724 41 248 10.4 12.2 0.00 0.00 0.00 91 1009.3
20260505190724 41 246 9.6 11.3 0.00 0.00 0.00 91 1009.2
20260505184724 41 244 11.3 13.0 0.00 0.00 0.00 90 1009.0
20260505182723 41 245 11.3 13.0 0.00 0.00 0.00 89 1008.8
20260505180724 42 240 11.3 13.9 0.00 0.00 0.00 87 1008.7
20260505174724 42 240 13.0 15.6 0.00 0.00 0.00 86 1008.5
20260505172723 43 242 12.2 14.8 0.00 0.00 0.00 84 1008.4